User: anonymous   Login
Location: Observatoire
(46.1952°N, 5.3391°E)
Time: 06:27:54
(UTC+02:00)
Language:

Gurwin Techsat 1B - Orbit

View from above orbital plane
View from above orbital plane
View from above satellite
View from above satellite

Ground track
Ground track

The orbit data is extracted from the following two-line orbital elements,

1 25397U 98043D   24106.49311843  .00000244  00000-0  12619-3 0  9998
2 25397  98.9163  72.3009 0001447  27.9915 332.1340 14.24015680338498
Epoch (UTC): 15 April 2024 11:50:05
Eccentricity: 0.0001447
inclination: 98.9163°
perigee height: 811 km
apogee height: 813 km
right ascension of ascending node: 72.3009°
argument of perigee: 27.9915°
revolutions per day: 14.24015680
mean anomaly at epoch: 332.1340°
orbit number at epoch: 33849

The dashed part of the orbit path shows where the satellite is in the earth's shadow,  

DLR